Overview Statistics Trail Chart Weather Telemetry Raw packets
 

This is the latest recevied weather packets stored in our database for station/object DL2GPS-3. If no packets are shown the sender has not sent any weather packets the latest 10 day(s).

<< 1 2 3 4 >>
Time Temp. Humidity Pressure Rain* Wind** Luminosity Snow
1788702434 23.89° C 36% 1027.8 hPa - - - -
1788701829 24.44° C 37% 1027.9 hPa - - - -
1788701223 24.44° C 38% 1027.9 hPa - - - -
1788700618 24.44° C 38% 1028.1 hPa - - - -
1788700013 25° C 37% 1028.1 hPa - - - -
1788699409 24.44° C 37% 1028.3 hPa - - - -
1788698803 24.44° C 38% 1028.3 hPa - - - -
1788698199 24.44° C 40% 1028.5 hPa - - - -
1788697618 24.44° C 41% 1028.4 hPa - - - -
1788696989 24.44° C 40% 1028.4 hPa - - - -
1788696383 23.33° C 41% 1028.5 hPa - - - -
1788695779 23.33° C 43% 1028.6 hPa - - - -
1788695174 22.78° C 43% 1028.8 hPa - - - -
1788694570 23.33° C 43% 1028.7 hPa - - - -
1788693965 22.78° C 45% 1028.8 hPa - - - -
1788693360 22.22° C 46% 1028.7 hPa - - - -
1788692756 22.78° C 45% 1028.8 hPa - - - -
1788692150 22.22° C 48% 1028.9 hPa - - - -
1788691544 22.78° C 47% 1028.9 hPa - - - -
1788690940 22.22° C 47% 1029 hPa - - - -
1788690335 21.67° C 47% 1029 hPa - - - -
1788689730 21.67° C 49% 1029.1 hPa - - - -
1788689125 21.67° C 48% 1029.2 hPa - - - -
1788688520 21.11° C 50% 1029.3 hPa - - - -
1788687915 21.67° C 49% 1029.3 hPa - - - -

* Rain since midnight (hover to see other rain measurements)
** Current wind speed in m/s (hover to see current wind gust speed)